Location: Quaker Farms
(41.4276°N, 73.1557°W)
Time: 01:04:04
(UTC+00:00)

Altair - Pass Details

Date: 20 June 2021
Orbit: 1501 x 1682 km, 47.2° (Epoch: 23 July)

Event Time Altitude Azimuth Distance (km) Brightness Sun altitude
Rises 23:49:05 0° 297° (WNW) 4,819 13.1 5.7°
Reaches altitude 10° 23:52:10 10° 295° (WNW) 3,855 12.8 5.2°
Maximum altitude 00:02:01 74° 214° (SSW) 1,718 7.9 3.6°
Drops below altitude 10° 00:12:06 10° 131° (SE) 3,936 9.0 1.9°
Sets 00:15:17 0° 130° (SE) 4,925 9.5 1.4°
